ONEWEB-0689, 61597

Orbit data source: Space-Track

ONEWEB-0689, 61597 is a payload satellite owned by Eut. One Web (UK) in LEO that was launched on Sun, 20 Oct 2024 UTC via an FALCON 9 launch vehicle from the Air Force Western Test Range (AFWTR). Payload-class satellites include a variety of spacecraft equipped with specific instruments for various scientific and technological missions. These include communications satellites like Starlink; space stations such as the ISS; scientific satellites like the Hubble; Earth observation satellites from companies like Planet Labs, Umbra, and HawkEye 360; GPS; miniature CubeSats for education and research; and military/defense satellites.

Loading next visibility...
Identifier
61597, 2024-188D
Orbit
LEO
Last TLE update
12 hours ago
Origin
Manufacturer
One Web
Mission
Operational Commercial Communications
Bus & Motor
ARROW, Unknown motor
Mass
148 kg wet, ~140 kg dry
Launch date (UTC)
2024-10-20 (8 months ago)
Launch vehicle
FALCON 9
Launch site
Air Force Western Test Range (AFWTR)
Object type
Payload
Rocket body
Debris
Shape & HBR
Trap Box + 2 Pan, 5 m
Radar Cross Section
2.032 m², Large (>1 m²)

Expand to show TLE details & history

TLE from 12 hours ago
0 ONEWEB-0689
1 61597U 24188D   25183.75156430 -.00000041  00000-0 -15217-3 0  9997
2 61597  87.8800  90.7329 0001904  65.9846 294.1481 13.11415607 38653
Epoch: 2025-07-02T18:02Z
TLE epoch observation values (Epoch: 2025-07-02T18:02:15.155Z)
Latitude
-0.00003°
Longitude
-100.85841°
Altitude
1,219.985 km
Speed
7.245 km/s
True Right ascension
06h 02m 55s
True Declination
0° 00' 00"
Sunlit
Object was in daylight at epoch
Visualization orbit readout
Latitude
-67.57643°
Longitude
84.1605°
Altitude
1,244.719 km
Speed
7.231 km/s
Apparent Right ascension
05h 33m 00s
Apparent Declination
-79° 43' 12"
Sunlit
Object is in full shadow
Visualization observer readout
Local Sidereal Time
18:02:36
Azimuth
177.947° S
Elevation
-50.094°
Doppler factor
1
Orbital elements
Apogee altitude
1,216.252 km
Perigee altitude
1,213.36 km
Semi-major axis
7,592.943 km
Eccentricity
0.00019
Inclination
87.88°
RAAN
90.7329°
Arg. of periapsis
65.9846°
True anomaly
Unknown
Mean anomaly
294.1481°
Eccentric anomaly
Unknown
Mean motion
3.28041 °/min
Orbital period
109.74 mins
BSTAR
-0.00015217
Loading maneuver chart data...
Loading SW <> Apogee altitude chart data...
Loading historical data...
Loading historical data...
Loading historical data...
Loading historical data...
Loading historical data...
Loading historical data...
Loading historical data...

ONEWEB-0689 Visibility forecast

Observer location: undefined°, undefined°

Span
Click to sort rows by Start time (UTC) header in descending order
Start Az.
Max El. time (UTC)
Max El. Az.
Max El.
End time (UTC)
End Az.
10 mins2025-07-03 07:27:57.253Z333.011° NNW2025-07-03 07:32:57.253Z289.394° WNW21.832°2025-07-03 07:37:57.253Z240.566° WSW
13 mins2025-07-03 17:56:57.253Z165.114° S2025-07-03 18:02:57.253Z74.671° E42.787°2025-07-03 18:09:57.253Z5.918° NNE
8 mins2025-07-03 19:49:57.253Z252.175° W2025-07-03 19:52:57.253Z281.775° WNW19.757°2025-07-03 19:57:57.253Z328.04° NNW
12 mins2025-07-04 05:26:57.253Z13.355° NNE2025-07-04 05:31:57.253Z73.341° E38.994°2025-07-04 05:38:57.253Z160.705° S
|